World > North America > United States > Illinois

Hourly Panola, IL Regional Weather

Feedback E-mail the Weather

Quick WX

Panola, IL Weather Maps

°F °C°F °C
Panola Weather Map
UTC Time: 7/2/2022, 02:57
Your Time:

Panola, IL Regional Weather

Expires:202207020300;;525695
ASUS43 KLOT 020209
RWRIL 

ILLINOIS REGIONAL WEATHER ROUNDUP
NATIONAL WEATHER SERVICE CHICAGO/ROMEOVILLE IL
900 PM CDT FRI JUL 01 2022

NOTE: "FAIR" INDICATES FEW OR NO CLOUDS BELOW 12,000 FEET WITH NO
SIGNIFICANT WEATHER AND/OR OBSTRUCTIONS TO VISIBILITY.

* THESE STATIONS ARE NOT UNDER NWS QUALITY CONTROL. THEY ALSO MAY NOT
  REPORT WEATHER SUCH AS PRECIPITATION OR FOG.


ILZ028>032-037-038-041>044-048-051>054-059>061-020300-
CENTRAL ILLINOIS
  
CITY           SKY/WX    TMP DP  RH WIND       PRES   REMARKS
PONTIAC        CLOUDY    71  70  96 CALM      29.99F                  
BLOOMINGTON    MOCLDY    72  69  90 NW7       30.01R                  
DECATUR        CLOUDY    76  73  91 N6        29.98R                  
PEORIA         MOCLDY    72  68  87 CALM      30.00R                  
LACON*         MOCLDY    70  70 100 CALM      29.99S                  
LINCOLN*       CLOUDY    74  72  92 N5        29.99R                  
SPRINGFIELD    CLOUDY    76  67  73 N6        29.97F                  
TAYLORVILLE    CLOUDY    76  70  83 N7        29.97F                  
$$


SKY/WX - Weather  TMP - Temperature  DP - Dew Point  RH - Humidity
WIND - Wind Direction/Speed PRES - Barometric Pressure VSB - Visibility
WCI - Wind Chill Index E13G22 Wind - East Wind 13 mph/Gusts of 22 mph

Trending Headlines

Panola Radar Loop



Panola Quick Facts


National Two Day Weather Forecast


E-mail the Panola Weather Forecast

Voice your opinion or tell us about page issues...